IRIDIUM 33 DEB

Satellite information

Favourite Embed

Satellite Type and Status

DEBRISIN ORBIT

Key statistics

Satellite IRIDIUM 33 DEB at a glance.

Uptime

10318

Days in orbit

Revolutions

≈ 14.3

Per day

Orbit

LEO

Low Earth Orbit

Inclination

86.3

Latest

Satellite identification and parameters

Extended collection of information and parameters for IRIDIUM 33 DEB.

Object identification

Identified? True

Debris? True

Object name: IRIDIUM 33 DEB

International designator: 1997-051AK

Object number (NORAD): 33866

Object ID (CCSDS): 33866

Country: UNITED STATES OF AMERICA (US)

Current information (Y/N): Y

RCS size: SMALL

Orbital parameters

Period: 101.033 minutes

Inclination: 86.2996 deg

SMA: 7185.712 km

Apoapsis: 889.815 km

Periapsis: 725.338 km

RAAN: 93.2276 deg

Eccentricy: 0.01144477

Argument of periapsis: 162.8384 deg

Mean anomaly: 255.4806 deg

Mean motion: 14.25273086 rev/day

Mean motion (dot): 0.00002737 rev/day2

B* drag term: 0.0010790636 1/REarth

Two-line elements (TLE)

Creation date: Dec. 12, 2025, 10:14 a.m.

Reference frame: TEME

Reference center: EARTH

Epoch: Dec. 12, 2025, 6:51 a.m. UTC

TLE line 0: 0 IRIDIUM 33 DEB

TLE line 1: 1 33866U 97051AK 25346.28551145 .00002737 00000-0 10791-2 0 9998

TLE line 2: 2 33866 86.2996 93.2276 0114448 162.8384 255.4806 14.25273086868045

Live tracking on map

Real-time ground track for satellite IRIDIUM 33 DEB.

In-orbit conjunctions

A list of the most updated potential collisions computed for object IRIDIUM 33 DEB.

Target Orbit TCA Probability of collision Miss distance Type
CZ-6A DEB SSO 2025-10-06 10:39:18 0.0001764171 61.0 (m) DEBRIS
THOR BURNER 2A R/B SSO 2025-06-03 15:34:18 0.0001103476 338.0 (m) ROCKET BODY
THOR ABLESTAR R/B LEO 2025-01-13 23:27:38 0.0002398801 730.0 (m) ROCKET BODY
NOAA 16 DEB SSO 2024-12-28 03:54:11 0.0001772875 160.0 (m) DEBRIS
CZ-6A DEB LEO 2024-09-18 11:57:20 0.0004970783 223.0 (m) DEBRIS

Associated space launch

Iridium provides global mobile telecommunications services using a constellation of 66 low earth orbit satellites in a 86.4° inclined orbit. Although 77 satellites were originally envisioned for the system and spawned the name based on the 77th element in the periodic table, the system has been scaled back. Motorola's Satellite Communications Group designed and manufactured the Iridium satellites with Lockheed Martin providing the LM-700A spacecraft buses.

IRIDIUM 33 DEB was lifted into orbit during the mission ‘Proton-K/17S40 | Iridium 27 to 33’, on board a Proton-K/17S40 space rocket.

The launch took place on Sept. 14, 1997, 1:36 a.m. from 81/23 (81L).

For more information about the launch, click the button.

Launch to space Proton-K/17S40 | Iridium 27 to 33
Proton-K/17S40 | Iridium 27 to 33

Agency: N/A

Status: Launch Successful

Launch date: Sept. 14, 1997, 1:36 a.m. UTC

Rocket: Proton-K/17S40

Launch pad: 81/23 (81L)

Location: Baikonur Cosmodrome, Republic of Kazakhstan

...

Latest news about this satellite

There are no fresh news available about this satellite. Check back as we update our databases every day.


Newsletter sign-up

Weekly statistics, charts and insights to help you stay on top of the space industry.